FW6146 Weather Reports


Display with metric or nautical units.
time (UTC)temp
F
wind
direction
speed
MPH
gust
MPH
rain 1hr
in
rain 24hr
in
rain mn
in
humidity
%
barometer
mb
20210920011559 58 0.0 0.0 0.00 0.13 0.12 89 1021.8
20210920010543 59 0.0 0.0 0.00 0.13 0.12 89 1021.8
20210920005602 59 0.0 1.0 0.00 0.13 0.12 88 1021.7
20210920004547 60 0.0 0.0 0.00 0.13 0.12 87 1021.5
20210920003532 60 0.0 0.0 0.00 0.13 0.12 86 1021.5
20210920002551 60 0.0 0.0 0.00 0.13 0.12 85 1021.3
20210920001536 61 0.0 0.0 0.00 0.13 0.12 86 1021.1
20210920000555 61 0.0 0.0 0.00 0.13 0.12 85 1021.0
20210919235541 61 0.0 0.0 0.00 0.13 0.12 87 1021.0
20210919234600 61 0.0 0.0 0.00 0.13 0.12 87 1020.7
20210919233546 62 0.0 0.0 0.00 0.13 0.12 87 1020.3
20210919232605 62 0.0 0.0 0.00 0.13 0.12 85 1020.1
20210919231551 63 0.0 0.0 0.00 0.13 0.12 83 1020.2
20210919230536 63 0.0 0.0 0.00 0.13 0.12 82 1019.9
20210919225555 64 0.0 0.0 0.00 0.13 0.12 79 1019.8
20210919224541 64 0.0 0.0 0.00 0.13 0.12 77 1019.6
20210919223556 65 0.0 0.0 0.00 0.13 0.12 75 1019.6
20210919222541 65 0.0 0.0 0.00 0.13 0.12 73 1019.5
20210919221600 66 0.0 0.0 0.00 0.13 0.12 73 1019.3
20210919220549 67 0.0 0.0 0.00 0.13 0.12 71 1019.4
20210919215602 67 0.0 0.0 0.00 0.13 0.12 69 1019.2
20210919214546 68 0.0 0.0 0.00 0.13 0.12 66 1019.3
20210919213607 67 343 0.0 1.0 0.00 0.13 0.12 69 1019.3
20210919212551 67 0.0 0.0 0.00 0.13 0.12 67 1019.1
20210919211610 68 0.0 0.0 0.00 0.13 0.12 65 1019.1
20210919210556 68 0.0 1.0 0.00 0.13 0.12 66 1019.1
20210919205542 68 343 1.0 1.0 0.00 0.13 0.12 66 1018.9
20210919204601 68 0.0 1.0 0.00 0.13 0.12 63 1018.9
20210919203547 69 0.0 0.0 0.00 0.13 0.12 61 1019.0
20210919202606 69 343 0.0 1.0 0.00 0.13 0.12 64 1018.9
20210919201551 69 0.0 1.0 0.00 0.13 0.12 60 1018.8
20210919200611 69 333 0.0 1.0 0.00 0.13 0.12 62 1018.8
20210919195557 69 333 0.0 1.0 0.00 0.13 0.12 57 1018.8
20210919194542 70 0.0 1.0 0.00 0.13 0.12 58 1018.9
20210919193601 70 2 0.0 1.0 0.00 0.13 0.12 56 1019.0
20210919192548 71 331 1.0 1.0 0.00 0.13 0.12 58 1019.2
20210919191606 71 329 1.0 1.0 0.00 0.13 0.12 55 1019.2
20210919190552 70 301 0.0 2.0 0.00 0.13 0.12 55 1019.1
20210919185611 70 20 1.0 1.0 0.00 0.13 0.12 57 1019.1
20210919184557 70 0.0 2.0 0.00 0.13 0.12 57 1019.4
20210919183616 71 16 1.0 1.0 0.00 0.13 0.12 57 1019.2
20210919182603 70 0.0 1.0 0.00 0.13 0.12 56 1019.3
20210919181547 70 25 1.0 1.0 0.00 0.13 0.12 56 1019.5
20210919180605 70 0.0 2.0 0.00 0.13 0.12 56 1019.5
20210919175550 71 27 0.0 1.0 0.00 0.13 0.12 57 1019.7
20210919174609 70 27 0.0 1.0 0.00 0.13 0.12 60 1019.5
20210919173555 69 0.0 1.0 0.00 0.13 0.12 58 1019.6
20210919172614 68 336 0.0 1.0 0.00 0.13 0.12 62 1019.5
20210919171600 68 0.0 1.0 0.00 0.13 0.12 65 1019.6
20210919170619 68 354 0.0 1.0 0.00 0.13 0.12 63 1019.7
20210919165609 68 350 0.0 1.0 0.00 0.13 0.12 62 1019.8
20210919164550 67 75 1.0 2.0 0.00 0.13 0.12 62 1019.8
20210919163609 67 328 0.0 1.0 0.00 0.13 0.12 61 1019.8
20210919162555 67 54 0.0 1.0 0.00 0.13 0.12 65 1019.9
20210919161604 67 31 0.0 1.0 0.00 0.13 0.12 62 1020.0
20210919160551 67 339 0.0 1.0 0.00 0.13 0.12 66 1019.9
20210919155609 67 15 0.0 1.0 0.00 0.13 0.12 67 1019.9
20210919154556 66 62 0.0 2.0 0.00 0.13 0.12 67 1019.9
20210919153614 66 2 0.0 1.0 0.00 0.13 0.12 72 1019.9
20210919152600 66 0.0 1.0 0.00 0.13 0.12 68 1019.8
20210919151618 65 62 1.0 2.0 0.00 0.13 0.12 69 1019.8
20210919150604 65 0.0 1.0 0.00 0.13 0.12 71 1019.7
20210919145624 65 0.0 0.0 0.00 0.13 0.12 74 1019.6
20210919144609 64 355 0.0 2.0 0.00 0.13 0.12 72 1019.7
20210919143554 64 252 1.0 2.0 0.00 0.13 0.12 72 1019.5
20210919142613 65 352 1.0 3.0 0.00 0.13 0.12 72 1019.5
20210919141559 64 358 0.0 2.0 0.00 0.13 0.12 76 1019.5
20210919140618 64 3 0.0 1.0 0.00 0.13 0.12 77 1019.6
20210919135559 63 0.0 1.0 0.00 0.13 0.12 82 1019.4
20210919134619 62 316 0.0 1.0 0.00 0.13 0.12 84 1019.2
20210919133604 63 0.0 1.0 0.00 0.13 0.12 81 1019.2
20210919132623 61 82 1.0 2.0 0.00 0.13 0.12 82 1019.1
20210919131609 61 305 0.0 3.0 0.00 0.13 0.12 85 1019.3
20210919130555 61 0.0 1.0 0.00 0.13 0.12 87 1019.1
20210919125614 61 0.0 1.0 0.00 0.13 0.12 91 1019.1
20210919124559 60 0.0 1.0 0.00 0.13 0.12 90 1018.8
20210919123618 60 0.0 1.0 0.00 0.13 0.12 91 1018.7
20210919122604 60 0.0 1.0 0.00 0.13 0.12 95 1018.7
20210919121623 60 0.0 1.0 0.00 0.13 0.12 96 1018.5
20210919120609 59 0.0 1.0 0.00 0.13 0.12 97 1018.4
20210919115626 59 0.0 0.0 0.00 0.13 0.12 97 1018.3
20210919114613 59 0.0 0.0 0.00 0.13 0.12 98 1018.1
20210919113558 59 0.0 0.0 0.00 0.13 0.12 98 1018.1
20210919112617 60 0.0 1.0 0.00 0.13 0.12 98 1017.8
20210919111603 60 0.0 0.0 0.00 0.13 0.12 98 1017.6
20210919110622 60 0.0 0.0 0.00 0.13 0.12 98 1017.7
20210919105608 60 0.0 0.0 0.00 0.13 0.12 98 1017.5
20210919104628 61 0.0 0.0 0.00 0.13 0.12 99 1017.4
20210919103613 61 0.0 1.0 0.00 0.13 0.12 99 1017.3
20210919102525 61 0.0 1.0 0.00 0.13 0.12 98 1017.1
20210919101511 62 259 1.0 1.0 0.00 0.13 0.12 99 1017.0
20210919100530 62 0.0 0.0 0.00 0.13 0.12 99 1016.7
20210919095517 62 0.0 0.0 0.00 0.13 0.12 99 1016.7
20210919094502 62 0.0 0.0 0.00 0.13 0.12 98 1016.7
20210919093523 61 0.0 0.0 0.00 0.13 0.12 98 1016.5
20210919092508 61 0.0 0.0 0.00 0.14 0.12 98 1016.3
20210919091527 61 0.0 0.0 0.00 0.14 0.12 98 1016.1
20210919090513 61 0.0 0.0 0.00 0.14 0.12 98 1016.1
20210919085532 61 0.0 1.0 0.01 0.14 0.12 98 1016.0
20210919084519 61 0.0 0.0 0.07 0.14 0.12 97 1015.8
20210919083537 62 0.0 0.0 0.08 0.14 0.12 97 1015.7
20210919082523 62 0.0 0.0 0.08 0.14 0.12 97 1015.6
20210919081510 63 0.0 0.0 0.08 0.14 0.12 97 1015.6
20210919080530 65 38 1.0 3.0 0.08 0.14 0.12 98 1015.6
20210919075510 65 0.0 0.0 0.08 0.13 0.11 98 1015.5
20210919074529 65 317 0.0 1.0 0.05 0.07 0.05 98 1015.3
20210919073515 65 0.0 2.0 0.04 0.06 0.04 98 1015.2
20210919072534 65 0.0 0.0 0.04 0.06 0.04 98 1015.1
20210919071519 65 0.0 0.0 0.04 0.06 0.04 97 1015.1
20210919070538 65 0.0 0.0 0.04 0.06 0.04 97 1015.0
20210919065524 65 0.0 0.0 0.03 0.05 0.03 97 1015.1
20210919064510 65 0.0 0.0 0.00 0.02 0.00 98 1015.1
20210919063530 65 299 0.0 1.0 0.00 0.02 0.00 98 1015.3
20210919062516 67 14 1.0 6.0 0.00 0.02 0.00 98 1015.3
20210919061535 66 0.0 0.0 0.00 0.02 0.00 99 1015.2
20210919060521 66 0.0 0.0 0.00 0.02 0.00 99 1015.1
20210919055540 66 0.0 0.0 0.00 0.02 0.00 98 1015.0
20210919054526 67 0.0 0.0 0.00 0.02 0.00 98 1015.1
20210919053545 67 0.0 0.0 0.00 0.02 0.00 98 1015.2
20210919052531 66 0.0 0.0 0.00 0.02 0.00 98 1015.1
20210919051517 66 0.0 0.0 0.00 0.02 0.00 98 1015.2
20210919050536 66 0.0 0.0 0.00 0.02 0.00 98 1015.2
20210919045522 67 0.0 0.0 0.00 0.02 0.00 98 1014.9
20210919044541 67 0.0 0.0 0.00 0.02 0.00 98 1015.0
20210919043527 67 0.0 0.0 0.00 0.02 0.00 98 1014.9
20210919042546 67 0.0 0.0 0.00 0.02 0.00 98 1014.8
20210919041532 67 0.0 0.0 0.01 0.02 0.00 98 1014.6
20210919040519 67 0.0 0.0 0.01 0.02 0.00 98 1014.7
20210919035540 67 0.0 0.0 0.01 0.02 0.02 98 1014.7
20210919034523 67 0.0 0.0 0.01 0.02 0.02 97 1014.7
20210919033542 67 0.0 0.0 0.01 0.02 0.02 97 1014.9
20210919032527 67 72 1.0 1.0 0.01 0.02 0.02 97 1014.8
20210919031547 67 72 0.0 1.0 0.00 0.01 0.01 97 1014.5
20210919030533 67 0.0 0.0 0.00 0.01 0.01 98 1014.4
20210919025551 67 0.0 1.0 0.00 0.01 0.01 97 1014.4
20210919024539 67 0.0 0.0 0.00 0.01 0.01 97 1014.3
20210919023523 67 0.0 0.0 0.00 0.01 0.01 97 1014.4
20210919022540 67 0.0 0.0 0.00 0.01 0.01 97 1014.4
20210919021523 67 0.0 0.0 0.00 0.01 0.01 97 1014.2
20210919020542 67 0.0 1.0 0.00 0.01 0.01 97 1014.4
20210919015526 67 72 0.0 1.0 0.00 0.01 0.01 97 1014.6
20210919014544 67 0.0 0.0 0.00 0.01 0.01 97 1014.1
20210919013527 67 0.0 0.0 0.00 0.01 0.01 97 1014.0
20210919012540 67 0.0 0.0 0.00 0.01 0.01 97 1013.9